Location: Chervonnoye
(48.6000°N, 34.4000°E)
Time: 06:37:59
(UTC+00:00)

SL-24 R/B - RUBIN 2 - Pass Details

Date: 23 November 2020
Orbit: 573 x 1022 km, 64.6° (Epoch: 18 January)

Event Time Altitude Azimuth Distance (km) Brightness Sun altitude
Rises 14:29:57 0° 320° (NW) 3,735 7.8 -6.0°
Reaches altitude 10° 14:32:43 10° 325° (NW) 2,747 7.0 -6.5°
Maximum altitude 14:39:06 57° 43° (NE) 1,075 4.5 -7.4°
Drops below altitude 10° 14:44:48 10° 122° (ESE) 2,471 6.3 -8.3°
Sets 14:47:11 0° 127° (SE) 3,334 7.0 -8.7°
